Weather History for KDMN - December, 2013

Change the Weather History Date:

Sunday, December 1, 2013

  Actual Average Record
Temperature  
Mean Temperature 50 °F 44 °F  
Max Temperature 63 °F 60 °F 73 °F (2012)
Min Temperature 36 °F 29 °F 11 °F (1957)
Degree Days  
Heating Degree Days 14    
Growing Degree Days 1 (Base 50)    
Moisture  
Dew Point 38 °F    
Average Humidity 62    
Maximum Humidity 85    
Minimum Humidity 39    
Precipitation  
Precipitation 0.00 in 0.03 in 0.66 in (1982)
Month to date precipitation 0.00 0.03  
Year to date precipitation 9.64 10.69  
Sea Level Pressure  
Sea Level Pressure 30.11 in    
Wind  
Wind Speed 4 mph (ENE)    
Max Wind Speed 10 mph    
Max Gust Speed 15 mph    
Visibility 10 miles    
Events      
T = Trace of Precipitation, MM = Missing Value Source: NWS Daily Summary

Daily Weather History Graph

Daily Weather History Graph

Search for Another Location

Airport or City:

Trip Planner

Search our weather history database for the weather conditions in past years. The results will help you decide how hot, cold, wet, or windy it might be!

Date:

Astronomy

Dec. 01, 2013 Rise Set
Actual Time 6:54 AM MST 5:05 PM MST
Civil Twilight 6:27 AM MST 5:32 PM MST
Nautical Twilight 5:57 AM MST 6:02 PM MST
Astronomical Twilight 5:27 AM MST 6:32 PM MST
Moon 5:20 AM MST (12/1) 4:14 PM MST (12/1)
Length of Visible Light 11h 04m
Length of Day
10h 11m
Waning Crescent, 2% of the Moon is Illuminated
Dec 1
Waning Crescent
Dec 2
New
Dec 9
First Quarter
Dec 17
Full
Dec 25
Last Quarter

Hourly Weather History & Observations

Time (MST) Temp. Windchill Dew Point Humidity Pressure Visibility Wind Dir Wind Speed Gust Speed Precip Events Conditions
12:53 AM 45.0 °F 43.5 °F 39.0 °F 80% 30.11 in 10.0 mi NNW 3.5 mph - N/A   Clear
1:53 AM 45.0 °F 42.6 °F 39.0 °F 80% 30.12 in 10.0 mi South 4.6 mph - N/A   Clear
2:53 AM 45.0 °F - 39.0 °F 80% 30.09 in 10.0 mi Calm Calm - N/A   Mostly Cloudy
3:53 AM 45.0 °F 41.8 °F 39.0 °F 80% 30.09 in 10.0 mi NW 5.8 mph - N/A   Overcast
4:53 AM 46.0 °F - 37.9 °F 73% 30.09 in 10.0 mi Calm Calm - N/A   Overcast
5:53 AM 45.0 °F - 39.0 °F 80% 30.13 in 10.0 mi Calm Calm - N/A   Mostly Cloudy
6:53 AM 45.0 °F - 39.0 °F 80% 30.15 in 10.0 mi Calm Calm - N/A   Overcast
7:53 AM 45.0 °F - 39.0 °F 80% 30.19 in 10.0 mi Calm Calm - N/A   Overcast
8:53 AM 51.1 °F - 39.9 °F 66% 30.18 in 10.0 mi Calm Calm - N/A   Clear
9:53 AM 55.9 °F - 41.0 °F 57% 30.17 in 10.0 mi ENE 5.8 mph - N/A   Mostly Cloudy
10:53 AM 61.0 °F - 37.9 °F 42% 30.14 in 10.0 mi East 6.9 mph - N/A   Clear
11:53 AM 60.1 °F - 36.0 °F 41% 30.12 in 10.0 mi East 8.1 mph - N/A   Partly Cloudy
12:53 PM 60.1 °F - 36.0 °F 41% 30.10 in 10.0 mi ESE 4.6 mph - N/A   Clear
1:53 PM 62.1 °F - 37.0 °F 39% 30.07 in 10.0 mi SSW 4.6 mph - N/A   Clear
2:53 PM 63.0 °F - 37.9 °F 40% 30.06 in 10.0 mi South 5.8 mph - N/A   Clear
3:53 PM 62.1 °F - 37.0 °F 39% 30.06 in 10.0 mi SSW 6.9 mph - N/A   Clear
4:53 PM 57.9 °F - 37.9 °F 47% 30.07 in 10.0 mi SSW 11.5 mph - N/A   Clear
5:53 PM 54.0 °F - 39.9 °F 59% 30.09 in 10.0 mi Calm Calm - N/A   Clear
6:53 PM 51.1 °F - 39.9 °F 66% 30.11 in 10.0 mi NNE 8.1 mph - N/A   Clear
7:53 PM 48.9 °F - 39.9 °F 71% 30.12 in 10.0 mi NNE 3.5 mph - N/A   Clear
8:53 PM 46.0 °F - 39.0 °F 76% 30.11 in 10.0 mi Calm Calm - N/A   Clear
9:53 PM 42.1 °F 40.2 °F 37.0 °F 82% 30.11 in 10.0 mi North 3.5 mph - N/A   Clear
10:53 PM 39.0 °F 34.0 °F 36.0 °F 89% 30.10 in 10.0 mi WNW 6.9 mph - N/A   Clear
11:53 PM 36.0 °F 31.1 °F 33.1 °F 89% 30.10 in 10.0 mi NE 5.8 mph - N/A   Clear